Location: Gouvernes
(48.8601°N, 2.6907°E)
Time: 13:56:20
(UTC+00:00)

OPS 6432 - Pass Details

Date: 16 October 2021
Orbit: 369 x 1711 km, 63.3° (Epoch: 13 June)

Event Time Altitude Azimuth Distance (km) Brightness Sun altitude
Rises 18:40:08 0° 318° (NW) 2,230 8.7 -17.6°
Reaches altitude 10° 18:42:02 10° 318° (NW) 1,392 7.6 -17.9°
Maximum altitude 18:45:00 89° 51° (NE) 410 4.1 -18.4°
Enters shadow 18:45:27 63° 137° (SE) 464 4.1 -18.5°
